User: anonymous
Location: Great Northern Moose Lodge
(44.6765°N, 71.1811°W)
Time: 04:43:26
(UTC-04:00)
Language:

Terra - Orbit

View from above orbital plane
View from above orbital plane
View from above satellite
View from above satellite

Ground track
Ground track

The orbit data is extracted from the following two-line orbital elements,

1 25994U 99068A   14293.42400871  .00000528  00000-0  12727-3 0  7430
2 25994 098.2006 006.3582 0001397 089.8627 270.2734 14.57121642789305
Epoch (UTC): 20 October 2014 10:10:34
Eccentricity: 0.0001397
inclination: 98.2006°
perigee height: 701 km
apogee height: 703 km
right ascension of ascending node: 6.3582°
argument of perigee: 89.8627°
revolutions per day: 14.57121642
mean anomaly at epoch: 270.2734°
orbit number at epoch: 78930

The dashed part of the orbit path shows where the satellite is in the earth's shadow,  

DLR